Simultaneous Nadir Overpasses (SNOs) Predictions

Prediction of SNOs between METOP-A and NOAA-19 Satellite Orbit:

Table of predicted SNOs for the next 14.0 days since TLE Epoch: 10/31/2020
Index Date (METOP-A) Time (METOP-A) Lat,Lon (METOP-A) SZA (METOP-A ) Date (NOAA-19) Time (NOAA-19) Lat,Lon (NOAA-19) SZA (NOAA-19 ) Distance(km) Time Diff (sec)
1 11/04/2020 05:36:56 80.74, 108.87 96.61 11/04/2020 05:35:50 80.75, 109.03 96.61 2.83 66
2 11/04/2020 06:27:37 -80.74, -83.81 83.38 11/04/2020 06:26:54 -80.75, -83.72 83.38 1.52 43
3 11/04/2020 07:18:17 80.76, 83.74 96.66 11/04/2020 07:17:50 80.74, 83.71 96.64 1.89 27
4 11/04/2020 08:08:58 -80.76,-108.95 83.34 11/04/2020 08:08:54 -80.74,-109.04 83.36 2.47 4
5 11/04/2020 08:59:39 80.75, 58.26 96.66 11/04/2020 08:59:50 80.74, 58.39 96.66 2.64 11
6 11/04/2020 09:50:20 -80.75,-134.42 83.33 11/04/2020 09:50:54 -80.74,-134.36 83.33 1.66 34
7 11/04/2020 10:41:01 80.74, 32.78 96.67 11/04/2020 10:41:51 80.74, 32.70 96.68 1.45 50
